Overview Statistics Trail Chart Weather Telemetry Raw packets
 

This is the latest recevied weather packets stored in our database for station/object N0RPM-13. If no packets are shown the sender has not sent any weather packets the latest 10 day(s).

<< 3 4 5 6 7 8 9 >>
Time Temp. Humidity Pressure Rain* Wind** Luminosity Snow
1788543100 28.89° C 71% 1012.8 hPa 0 mm - 789 W/m² -
1788542796 28.89° C 72% 1012.7 hPa 0 mm - 765 W/m² -
1788542495 28.89° C 72% 1012.8 hPa 0 mm - 771 W/m² -
1788542191 28.89° C 72% 1012.7 hPa 0 mm - 746 W/m² -
1788541886 29.44° C 70% 1012.6 hPa 0 mm - 737 W/m² -
1788541582 28.89° C 71% 1012.7 hPa 0 mm - 725 W/m² -
1788541277 29.44° C 71% 1012.7 hPa 0 mm - 731 W/m² -
1788540976 29.44° C 71% 1012.6 hPa 0 mm - 721 W/m² -
1788540676 29.44° C 71% 1012.6 hPa 0 mm - 717 W/m² -
1788540370 29.44° C 70% 1012.4 hPa 0 mm - 714 W/m² -
1788540066 30° C 69% 1012.7 hPa 0 mm - 716 W/m² -
1788539778 30.56° C 68% 1012.5 hPa 0 mm - 694 W/m² -
1788539456 30.56° C 67% 1012.5 hPa 0 mm - 666 W/m² -
1788539150 30.56° C 67% 1012.4 hPa 0 mm - 673 W/m² -
1788538846 30° C 67% 1012.3 hPa 0 mm - 675 W/m² -
1788538546 30° C 68% 1012.2 hPa 0 mm - 658 W/m² -
1788538241 30.56° C 67% 1012.4 hPa 0 mm - 658 W/m² -
1788537936 30.56° C 67% 1012.1 hPa 0 mm - 631 W/m² -
1788537633 30.56° C 66% 1012.2 hPa 0 mm - 625 W/m² -
1788537332 30.56° C 67% 1012.2 hPa 0 mm - 617 W/m² -
1788537032 31.11° C 66% 1012.2 hPa 0 mm - 610 W/m² -
1788536746 30.56° C 66% 1012.1 hPa 0 mm - 599 W/m² -
1788536421 30.56° C 68% 1012 hPa 0 mm - 582 W/m² -
1788536120 30.56° C 67% 1011.9 hPa 0 mm - 573 W/m² -
1788535817 30° C 68% 1012 hPa 0 mm - 559 W/m² -

* Rain latest hour (hover to see other rain measurements)
** Current wind speed in m/s (hover to see current wind gust speed)